Regional Weather Roundup
Issued by NWS

Home | Current Version | Previous Version | Text Only | Print | Product List | Glossary On
Versions: 1 2 3 4 5 6 7 8 9 10 11 12 13 14 15 16 17 18 19 20 21 22 23 24 25 26 27 28
000
ASUS45 KCYS 190610
RWRWY

WYOMING REGIONAL WEATHER ROUNDUP
NATIONAL WEATHER SERVICE CHEYENNE WY
1200 AM MDT SAT AUG 19 2017

NOTE:  "FAIR" INDICATES FEW OR NO CLOUDS BELOW 12,000 FEET
WITH NO SIGNIFICANT WEATHER AND/OR OBSTRUCTIONS TO VISIBILITY.

WYZ001-190700-
YELLOWSTONE NATIONAL PARK

CITY           SKY/WX    TMP DP  RH WIND       PRES   REMARKS
LK YELLOWSTONE   N/A     43  36  76 W3        30.32S
6HR MIN TEMP:  43; 6HR MAX TEMP:  71;

W YELLOWSTONE  NOT AVBL

$$
WYZ002>013-054>058-071-098>099-190700-
NORTHERN WYOMING

CITY           SKY/WX    TMP DP  RH WIND       PRES   REMARKS
JACKSON        FAIR      45  33  63 N6        30.22F
CODY           FAIR      74  34  23 SW9       30.06S
GREYBULL       FAIR      69  40  34 N9        29.95S
6HR MIN TEMP:  67; 6HR MAX TEMP:  90;

WORLAND        FAIR      62  35  36 CALM      29.97R
6HR MIN TEMP:  62; 6HR MAX TEMP:  91;

SHERIDAN       FAIR      56  45  66 CALM      29.96F
6HR MIN TEMP:  56; 6HR MAX TEMP:  89;

BUFFALO        FAIR      70  34  26 W9        30.04F
6HR MIN TEMP:  64; 6HR MAX TEMP:  88;

GILLETTE       FAIR      71  39  31 S20       29.99F
6HR MIN TEMP:  60; 6HR MAX TEMP:  88;

HULETT         FAIR      61  37  41 SW6       29.99F
NEWCASTLE      FAIR      70  36  28 E13G21    30.03S

$$
WYZ014>020-022>026-101>103-190700-
CENTRAL WYOMING

CITY           SKY/WX    TMP DP  RH WIND       PRES   REMARKS
BIG PINEY      FAIR      47  33  58 NW8       30.27S
6HR MIN TEMP:  47; 6HR MAX TEMP:  80;

PINEDALE       FAIR      46  32  57 W8        30.27F
DUBOIS         FAIR      54  32  43 W10       30.25S
LANDER           N/A    N/A N/A N/A MISG      30.10R
RIVERTON       FAIR      66  29  24 W13       30.09R
6HR MIN TEMP:  66; 6HR MAX TEMP:  85;

CASPER         FAIR      55  39  54 MISG      30.07F
6HR MIN TEMP:  55; 6HR MAX TEMP:  87;

DOUGLAS        FAIR      63  45  51 E10       30.05F
6HR MIN TEMP:  61; 6HR MAX TEMP:  85;


$$
WYZ021-027>030-104>119-190700-
SOUTHERN WYOMING

CITY           SKY/WX    TMP DP  RH WIND       PRES   REMARKS
EVANSTON       FAIR      62  29  28 SW6       30.29S
6HR MIN TEMP:  61; 6HR MAX TEMP:  79;

KEMMERER         N/A     55  30  38 N6        30.30S
FORT BRIDGER   FAIR      64  27  25 W10       30.30S
ROCK SPRINGS   FAIR      63  28  26 SW8       30.24F
6HR MIN TEMP:  63; 6HR MAX TEMP:  83;

RAWLINS        FAIR      63  32  31 SW9       30.23S
6HR MIN TEMP:  60; 6HR MAX TEMP:  81;

SARATOGA       FAIR      54  37  54 SE6       30.26S
LARAMIE        FAIR      54  40  59 S13       30.26S
6HR MIN TEMP:  52; 6HR MAX TEMP:  78;

CHEYENNE       FAIR      60  44  55 SW8       30.18F
6HR MIN TEMP:  60; 6HR MAX TEMP:  80;

TORRINGTON     FAIR      65  47  52 E13       30.02F
6HR MIN TEMP:  63; 6HR MAX TEMP:  86;

PINE BLUFFS    FAIR      57  50  77 SW8       30.14S

$$




USA.gov is the U.S. government's official web portal to all federal, state and local government web resources and services.